�������l�o���
Date,Time,MP-1(��Sv/h),MP-2(��Sv/h),MP-3(��Sv/h),MP-4(��Sv/h),MP-5(��Sv/h),MP-6(��Sv/h),MP-7(��Sv/h),����,����(m/s),���J
2014/01/05,00:00,0.8,0.5,0.8,0.8,0.7,0.3,0.3,�k,2.6,��
2014/01/05,00:10,0.8,0.5,0.8,0.8,0.7,0.3,0.3,�k,2.2,��
2014/01/05,00:20,0.8,0.5,0.8,0.8,0.7,0.3,0.3,�k,2.6,��
2014/01/05,00:30,0.8,0.5,0.8,0.8,0.7,0.3,0.3,�k�k��,2.0,��
2014/01/05,00:40,0.8,0.5,0.8,0.8,0.7,0.3,0.3,�k,2.2,��
2014/01/05,00:50,0.8,0.5,0.8,0.7,0.7,0.3,0.3,�k�k��,1.7,��
2014/01/05,01:00,0.8,0.5,0.8,0.7,0.7,0.3,0.3,�k�k��,2.4,��
2014/01/05,01:10,0.8,0.5,0.8,0.8,0.7,0.3,0.3,�k�k��,2.7,��
2014/01/05,01:20,0.8,0.5,0.8,0.7,0.7,0.3,0.3,�k�k��,3.4,��
2014/01/05,01:30,0.8,0.5,0.8,0.8,0.7,0.3,0.3,�k�k��,2.0,��
2014/01/05,01:40,0.8,0.5,0.8,0.8,0.7,0.3,0.3,�k,2.9,��
2014/01/05,01:50,0.8,0.5,0.8,0.8,0.7,0.3,0.3,�k�k��,3.2,��
2014/01/05,02:00,0.8,0.5,0.8,0.8,0.7,0.3,0.3,�k�k��,3.6,��
2014/01/05,02:10,0.8,0.5,0.8,0.8,0.7,0.3,0.3,�k�k��,3.2,��
2014/01/05,02:20,0.8,0.5,0.8,0.8,0.7,0.3,0.3,�k�k��,4.6,��
2014/01/05,02:30,0.8,0.5,0.8,0.8,0.7,0.3,0.3,�k,4.4,��
2014/01/05,02:40,0.8,0.5,0.8,0.8,0.7,0.3,0.3,�k,3.4,��
2014/01/05,02:50,0.8,0.5,0.8,0.8,0.7,0.3,0.3,�k,3.6,��
2014/01/05,03:00,0.8,0.5,0.8,0.8,0.7,0.3,0.3,�k,3.9,��
2014/01/05,03:10,0.8,0.5,0.8,0.8,0.7,0.3,0.3,�k�k��,1.8,��
2014/01/05,03:20,0.8,0.5,0.8,0.8,0.7,0.3,0.3,�k,2.6,��
2014/01/05,03:30,0.8,0.5,0.8,0.8,0.7,0.3,0.3,�k,2.9,��
2014/01/05,03:40,0.8,0.5,0.8,0.7,0.7,0.3,0.3,�k�k��,3.8,��
2014/01/05,03:50,0.8,0.5,0.8,0.7,0.7,0.3,0.3,�k,3.6,��
2014/01/05,04:00,0.8,0.5,0.8,0.8,0.7,0.3,0.3,�k,4.8,��
2014/01/05,04:10,0.8,0.5,0.8,0.8,0.7,0.3,0.3,�k,4.5,��
2014/01/05,04:20,0.8,0.5,0.8,0.8,0.7,0.3,0.3,�k,2.2,��
2014/01/05,04:30,0.8,0.5,0.8,0.8,0.7,0.3,0.3,�k,3.5,��
2014/01/05,04:40,0.8,0.5,0.8,0.8,0.7,0.3,0.3,�k,3.9,��
2014/01/05,04:50,0.8,0.5,0.8,0.8,0.7,0.3,0.3,�k,5.4,��
2014/01/05,05:00,0.8,0.5,0.8,0.8,0.7,0.3,0.3,�k,5.3,��
2014/01/05,05:10,0.8,0.5,0.8,0.8,0.7,0.3,0.3,�k,5.2,��
2014/01/05,05:20,0.8,0.5,0.8,0.8,0.7,0.3,0.3,�k,5.9,��
2014/01/05,05:30,0.8,0.5,0.8,0.8,0.7,0.3,0.3,�k,6.5,��
2014/01/05,05:40,0.8,0.5,0.8,0.8,0.7,0.3,0.3,�k,6.4,��
2014/01/05,05:50,0.8,0.5,0.8,0.8,0.7,0.3,0.3,�k,5.7,��
2014/01/05,06:00,0.8,0.5,0.8,0.8,0.7,0.3,0.3,�k,5.2,��
2014/01/05,06:10,0.8,0.5,0.8,0.8,0.7,0.3,0.3,�k,4.9,��
2014/01/05,06:20,0.8,0.5,0.8,0.8,0.7,0.3,0.3,�k,4.5,��
2014/01/05,06:30,0.8,0.5,0.8,0.8,0.7,0.3,0.3,�k,4.2,��
2014/01/05,06:40,0.8,0.5,0.8,0.8,0.7,0.3,0.3,�k�k��,3.2,��
2014/01/05,06:50,0.8,0.5,0.8,0.8,0.7,0.3,0.3,�k,4.4,��
2014/01/05,07:00,0.8,0.5,0.8,0.8,0.7,0.3,0.3,�k,4.7,��
2014/01/05,07:10,0.8,0.5,0.8,0.8,0.7,0.3,0.3,�k,3.6,��
2014/01/05,07:20,0.8,0.5,0.8,0.8,0.7,0.3,0.3,�k,3.5,��
2014/01/05,07:30,0.8,0.5,0.8,0.8,0.7,0.3,0.3,�k,3.4,��
2014/01/05,07:40,0.8,0.5,0.8,0.8,0.7,0.3,0.3,�k,2.8,��
2014/01/05,07:50,0.8,0.5,0.8,0.8,0.7,0.3,0.3,�k�k��,3.1,��
2014/01/05,08:00,0.8,0.5,0.8,0.8,0.7,0.3,0.3,�k,2.0,��
2014/01/05,08:10,0.8,0.5,0.8,0.8,0.7,0.3,0.3,�k,2.4,��
2014/01/05,08:20,0.8,0.5,0.8,0.8,0.7,0.3,0.3,�k,2.5,��
2014/01/05,08:30,0.8,0.5,0.8,0.8,0.7,0.3,0.3,�k,2.5,��
2014/01/05,08:40,0.8,0.5,0.8,0.8,0.7,0.3,0.3,�k,3.6,��
2014/01/05,08:50,0.8,0.5,0.8,0.8,0.7,0.3,0.3,�k,2.0,��
2014/01/05,09:00,0.8,0.5,0.8,0.8,0.7,0.3,0.3,�k,2.1,��
2014/01/05,09:10,0.8,0.5,0.8,0.8,0.7,0.3,0.3,�k�k��,1.8,��
2014/01/05,09:20,0.8,0.5,0.8,0.8,0.7,0.3,0.3,�k�k��,1.6,��
2014/01/05,09:30,0.8,0.5,0.8,0.8,0.7,0.3,0.3,�k,1.4,��
2014/01/05,09:40,0.8,0.5,0.8,0.8,0.7,0.3,0.3,�k,1.0,��
2014/01/05,09:50,0.8,0.5,0.8,0.8,0.7,0.3,0.3,�k�k��,1.0,��
2014/01/05,10:00,0.8,0.5,0.8,0.8,0.7,0.3,0.3,�k�k��,1.8,��
2014/01/05,10:10,0.8,0.5,0.8,0.8,0.7,0.3,0.3,�k��,2.2,��
2014/01/05,10:20,0.8,0.5,0.8,0.8,0.7,0.3,0.3,�k��,2.5,��
2014/01/05,10:30,0.8,0.5,0.8,0.8,0.7,0.3,0.3,�k��,3.2,��
2014/01/05,10:40,0.8,0.5,0.8,0.8,0.7,0.3,0.3,�k�k��,2.6,��
2014/01/05,10:50,0.8,0.5,0.8,0.8,0.7,0.3,0.3,�k�k��,2.5,��
2014/01/05,11:00,0.8,0.5,0.8,0.8,0.7,0.3,0.3,���k��,1.5,��
2014/01/05,11:10,0.8,0.5,0.8,0.8,0.7,0.3,0.3,���k��,2.5,��
2014/01/05,11:20,0.8,0.5,0.8,0.8,0.7,0.3,0.3,�k��,2.3,��
2014/01/05,11:30,0.8,0.5,0.8,0.8,0.7,0.3,0.3,��,2.0,��
2014/01/05,11:40,0.8,0.5,0.8,0.8,0.7,0.3,0.3,-,CALM,��
2014/01/05,11:50,0.8,0.5,0.8,0.8,0.7,0.3,0.3,��,0.5,��
2014/01/05,12:00,0.8,0.5,0.8,0.8,0.7,0.3,0.3,-,CALM,��
2014/01/05,12:10,0.8,0.5,0.8,0.8,0.7,0.3,0.3,��,1.1,��
2014/01/05,12:20,0.8,0.5,0.8,0.8,0.7,0.3,0.3,�쓌,1.6,��
2014/01/05,12:30,0.8,0.5,0.8,0.8,0.7,0.3,0.3,-,CALM,��
2014/01/05,12:40,0.8,0.5,0.8,0.8,0.7,0.3,0.3,-,CALM,��
2014/01/05,12:50,0.8,0.5,0.8,0.8,0.7,0.3,0.3,���쓌,1.8,��
2014/01/05,13:00,0.8,0.5,0.8,0.8,0.7,0.3,0.3,�쓌,1.7,��
2014/01/05,13:10,0.8,0.5,0.8,0.8,0.7,0.3,0.3,���쓌,0.9,��
2014/01/05,13:20,0.8,0.5,0.8,0.8,0.7,0.3,0.3,��쓌,2.2,��
2014/01/05,13:30,0.8,0.5,0.8,0.8,0.7,0.3,0.3,��,1.4,��
2014/01/05,13:40,0.8,0.5,0.8,0.8,0.7,0.3,0.3,���k��,1.2,��
2014/01/05,13:50,0.8,0.5,0.8,0.8,0.7,0.3,0.3,��쓌,0.7,��
2014/01/05,14:00,0.8,0.5,0.8,0.8,0.7,0.3,0.3,-,CALM,��
2014/01/05,14:10,0.8,0.5,0.8,0.8,0.7,0.3,0.3,�k,1.1,��
2014/01/05,14:20,0.8,0.5,0.8,0.8,0.7,0.3,0.3,�k�k��,3.3,��
2014/01/05,14:30,0.8,0.5,0.8,0.8,0.7,0.3,0.3,��,2.4,��
2014/01/05,14:40,0.8,0.5,0.8,0.8,0.7,0.3,0.3,���쐼,1.1,��
2014/01/05,14:50,0.8,0.5,0.8,0.8,0.7,0.3,0.3,���쐼,0.6,��
2014/01/05,15:00,0.8,0.5,0.8,0.8,0.7,0.3,0.3,��,3.2,��
2014/01/05,15:10,0.8,0.5,0.8,0.8,0.7,0.3,0.3,��,1.4,��
2014/01/05,15:20,0.8,0.5,0.8,0.8,0.7,0.3,0.3,-,CALM,��
2014/01/05,15:30,0.8,0.5,0.8,0.8,0.7,0.3,0.3,-,CALM,��
2014/01/05,15:40,0.8,0.5,0.8,0.8,0.7,0.3,0.3,-,CALM,��
2014/01/05,15:50,0.8,0.5,0.8,0.8,0.7,0.3,0.3,�k,0.5,��
2014/01/05,16:00,0.8,0.5,0.8,0.8,0.7,0.3,0.3,���k��,1.1,��
2014/01/05,16:10,0.8,0.5,0.8,0.8,0.7,0.3,0.3,���k��,3.6,��
2014/01/05,16:20,0.8,0.5,0.8,0.8,0.7,0.3,0.3,���k��,4.4,��
2014/01/05,16:30,0.8,0.5,0.8,0.8,0.7,0.3,0.3,���k��,4.4,��
2014/01/05,16:40,0.8,0.5,0.8,0.8,0.7,0.3,0.3,���k��,4.5,��
2014/01/05,16:50,0.8,0.5,0.8,0.8,0.7,0.3,0.3,�k��,4.3,��
2014/01/05,17:00,0.8,0.5,0.8,0.8,0.7,0.3,0.3,���k��,4.9,��
2014/01/05,17:10,0.8,0.5,0.8,0.8,0.7,0.3,0.3,���k��,3.6,��
2014/01/05,17:20,0.8,0.5,0.8,0.8,0.7,0.3,0.3,���k��,5.3,��
2014/01/05,17:30,0.8,0.5,0.8,0.8,0.7,0.3,0.3,���k��,4.2,��
2014/01/05,17:40,0.8,0.5,0.8,0.8,0.7,0.3,0.3,���k��,4.5,��
2014/01/05,17:50,0.8,0.5,0.8,0.8,0.7,0.3,0.3,���k��,3.4,��
2014/01/05,18:00,0.8,0.5,0.8,0.8,0.7,0.3,0.3,���k��,3.1,��
2014/01/05,18:10,0.8,0.5,0.8,0.8,0.7,0.3,0.3,�k��,3.4,��
2014/01/05,18:20,0.8,0.5,0.8,0.8,0.7,0.3,0.3,�k��,1.8,��
2014/01/05,18:30,0.8,0.5,0.8,0.8,0.7,0.3,0.3,�k��,2.0,��
2014/01/05,18:40,0.8,0.5,0.8,0.8,0.7,0.3,0.3,�k�k��,2.7,��
2014/01/05,18:50,0.8,0.5,0.8,0.8,0.7,0.3,0.3,�k�k��,2.5,��
2014/01/05,19:00,0.8,0.5,0.8,0.8,0.7,0.3,0.3,�k��,2.5,��
2014/01/05,19:10,0.8,0.5,0.8,0.8,0.7,0.3,0.3,�k��,4.7,��
2014/01/05,19:20,0.8,0.5,0.8,0.8,0.7,0.3,0.3,�k��,3.8,��
2014/01/05,19:30,0.8,0.5,0.8,0.8,0.7,0.3,0.3,�k��,2.6,��
2014/01/05,19:40,0.8,0.5,0.8,0.8,0.7,0.3,0.3,�k��,2.6,��
2014/01/05,19:50,0.8,0.5,0.8,0.8,0.7,0.3,0.3,�k��,3.4,��
2014/01/05,20:00,0.8,0.5,0.8,0.8,0.7,0.3,0.3,��,3.9,��
2014/01/05,20:10,0.8,0.5,0.8,0.8,0.7,0.3,0.3,�k��,3.4,��
2014/01/05,20:20,0.8,0.5,0.8,0.8,0.7,0.3,0.3,�k��,2.5,��
2014/01/05,20:30,0.8,0.5,0.8,0.8,0.7,0.3,0.3,�k��,3.1,��
2014/01/05,20:40,0.8,0.5,0.8,0.8,0.7,0.3,0.3,���k��,5.6,��
2014/01/05,20:50,0.8,0.5,0.8,0.8,0.7,0.3,0.3,���k��,4.1,��
2014/01/05,21:00,0.8,0.5,0.8,0.8,0.7,0.3,0.3,���k��,5.6,��
2014/01/05,21:10,0.8,0.5,0.8,0.8,0.7,0.3,0.3,�k��,4.8,��
2014/01/05,21:20,0.8,0.5,0.8,0.8,0.7,0.3,0.3,�k�k��,3.2,��
2014/01/05,21:30,0.8,0.5,0.8,0.8,0.7,0.3,0.3,�k�k��,3.3,��
2014/01/05,21:40,0.8,0.5,0.8,0.8,0.7,0.3,0.3,�k��,5.1,��
2014/01/05,21:50,0.8,0.5,0.8,0.8,0.7,0.3,0.3,�k��,3.4,��
2014/01/05,22:00,0.8,0.5,0.8,0.8,0.7,0.3,0.3,�k��,3.2,��
2014/01/05,22:10,0.8,0.5,0.8,0.8,0.7,0.3,0.3,�k��,2.9,��
2014/01/05,22:20,0.8,0.5,0.8,0.8,0.7,0.3,0.3,�k�k��,3.1,��
2014/01/05,22:30,0.8,0.5,0.8,0.8,0.7,0.3,0.3,�k�k��,3.3,��
2014/01/05,22:40,0.8,0.5,0.8,0.8,0.7,0.3,0.3,���k��,3.8,��
2014/01/05,22:50,0.8,0.5,0.8,0.8,0.7,0.3,0.3,�k��,4.7,��
2014/01/05,23:00,0.8,0.5,0.8,0.8,0.7,0.3,0.3,�k��,5.1,��
2014/01/05,23:10,0.8,0.5,0.8,0.8,0.7,0.3,0.3,�k��,4.7,��
2014/01/05,23:20,0.8,0.5,0.8,0.8,0.7,0.3,0.3,�k��,3.6,��
2014/01/05,23:30,0.8,0.5,0.8,0.8,0.7,0.3,0.3,�k��,3.0,��
2014/01/05,23:40,0.8,0.5,0.8,0.8,0.7,0.3,0.3,�k��,4.0,��
2014/01/05,23:50,0.8,0.5,0.8,0.7,0.7,0.3,0.3,���k��,5.2,��
